カタログに戻る

NOAA 16 DEB

運用中PO
NORAD 41078·DEBRIS·🇺🇸 United States

打ち上げ Sep 21, 2000 から Vandenberg Space Force Base

Loading…

次のパス (今後24時間)

TLE

最新Source: Space-Track

元期: Sep 14, 2026, 13:33 UTC

1 41078U 00055AM  26257.56468985  .00000257  00000-0  30669-3 0  9994
2 41078  98.9391   5.8952 0289329 146.0296 215.9749 13.58517486534907

AllMySatでNOAA 16 DEBをリアルタイム追跡

Download on the App Store